Погода в Сатанове

Украина / Хмельницкая область     49°15′05″N   26°15′51″E
темп.,
°C
ветер,
м/с
пор.,
м/с
влажн.,
%
обл.,
%
осадки,
мм/ч
давл.,
гПа
погр.,
м
16 апреля, пт
пт1600:00+2зсз5996100 0.0 1016510
03:00+1зсз5996100 0.1 1015580
06:00+1з51196100 0.0 1014513
09:00+1з61395100 0.4 1014562
12:00+2з71193100 0.4 1015747
15:00+3з61295100 0.7 1015711
18:00+3зсз81490100 0.1 1016939
21:00+2зсз71494100 0.2 1017833
17 апреля, сб
сб1700:00+2зсз51192100 0.1 1018726
03:00+2з51197100 0.2 1018490
06:00+2з41097100 0.3 1018438
09:00+2з4899100 0.8 1020379
12:00+3зсз3797100 0.1 1020392
15:00+5ссз3489100 0.1 1021564
18:00+6ссз2380100 0.0 1020528
21:00+5ссв2279100 0.0 102140
18 апреля, вс
вс1800:00+4св119199 0.0 102019
03:00+2ссв119113 0.0 102010
06:00+1ссз22925 0.0 102015
09:00+5с228039 0.0 1019289
12:00+9ссв226497 0.0 1018775
15:00+12ссв2152100 0.0 10171179
18:00+12св3350100 0.0 10161393
21:00+9всв4769100 0.0 1017141
19 апреля, пн
пн1900:00+7в4887100 0.0 1018237
03:00+7в3686100 0.0 1017228
06:00+6в3492100 0.0 101799
09:00+7в3578100 0.0 1017374
12:00+10в3460100 0.0 1016905
15:00+13всв444395 0.0 10141985
18:00+12всв6654100 0.1 10131304
21:00+8в3873100 0.1 1014325
20 апреля, вт
вт2000:00+6ссв2582100 0.0 1012154
03:00+5ссв2382100 0.0 101169
06:00+6с3882100 0.1 1009275
09:00+7с5975100 0.1 1008498
12:00+9сз8106485 0.1 10051506
15:00+10сз8116182 0.3 10051680
18:00+10зсз8126121 0.2 10051489
21:00+7з511765 0.3 1007465